Domov               UVHVVR             MKGP            O straneh              
ZDRAVSTVENO VARSTVO RASTLIN
  MREŽA AGROMET. POSTAJ
 ► PROGNOSTIČNA OBVESTILA
AGROMETEOROLOŠKI PODATKI -
ARSO
OBVLADOVANJE TVEGANJ ZARADI
NEUGODNIH VREMENSKIH RAZMER
  ► NARAVNE NESREČE
  ► SUŠA/MOČA
  ► NAMAKANJE
  ► ŽLED (gozdarstvo)
KARTOGRAFSKI PRIKAZI
SPLETNE POVEZAVE
PROJEKTI IN PUBLIKACIJE

AGROMETEOROLOŠKA MREŽA: VREMENSKE POSTAJE IN FENOLOŠKA OPAZOVANJA

Pregled podatkov za lokacijo Svečina, meteorološka postaja 25165

Pregled senzorjev na lokaciji

ID Ime Zadnja
vrednost
Datum
zadnje
spremembe
Tip
senzorja
4437 Omočenost lista (U) 0 U 26.3.2019 18:00 A730WET
4432 Padavine (mm) 0 mm 26.3.2019 18:00 Generic 0.2 mm
4436 Relativna vlaga 2 m (% RH) 29,79 % RH 26.3.2019 18:00 Generic 0 - 100 %
4435 Temperatura 2 m (°C) 10,55 °C 26.3.2019 18:00 Generic -40 - +60 °C

Pregled podatkov zadnjih 24 ur

Zap.
št.
Datum in čas Svečina
Omočenost
lista
Padavine Relativna
vlaga
2
m
Temperatura
2
m
1 26.3.2019 17:30
2 26.3.2019 17:00 0 0 29,8 10,5
3 26.3.2019 16:30 0 0 30,5 11
4 26.3.2019 16:00 0 0 31,5 10,5
5 26.3.2019 15:30 0 0 31,9 10,5
6 26.3.2019 15:00 0 0 30,3 11,6
7 26.3.2019 14:30 0 0 31,5 10,7
8 26.3.2019 14:00 0 0 31,9 10,8
9 26.3.2019 13:30 0 0 34,6 10,5
10 26.3.2019 13:00 0 0 35,4 10,2
11 26.3.2019 12:30 0 0 37,5 9,1
12 26.3.2019 12:00 0 0 40,6 9,4
13 26.3.2019 11:30 3 0 43,3 8,3
14 26.3.2019 11:00 3 0 44,5 8,7
15 26.3.2019 10:30 3 0 47,8 7,9
16 26.3.2019 10:00 3 0 50,1 8,1
17 26.3.2019 09:30 3 0 52,4 7,5
18 26.3.2019 09:00 3 0 54,7 6,8
19 26.3.2019 08:30 3 0 56,6 6,4
20 26.3.2019 08:00 3 0 60,4 5,5
21 26.3.2019 07:30 4 0 63,5 4,6
22 26.3.2019 07:00 4 0 66,7 3,5
23 26.3.2019 06:30 4 0 69,5 3,2
24 26.3.2019 06:00 4 0 70,2 3,1
25 26.3.2019 05:30 3 0 70,9 3,1
26 26.3.2019 05:00 3 0 70,8 3,3
27 26.3.2019 04:30 3 0 68,8 3,5
28 26.3.2019 04:00 4 0 69,3 3,6
29 26.3.2019 03:30 4 0 69,5 3,6
30 26.3.2019 03:00 3 0 68,7 3,8
31 26.3.2019 02:30 3 0 68,1 3,9
32 26.3.2019 02:00 3 0 70,9 3,8
33 26.3.2019 01:30 3 0 84,6 3,1
34 26.3.2019 01:00 3 0 92,7 2,9
35 26.3.2019 00:30 3 0 94,8 2,8
36 26.3.2019 00:00 3 0 94,2 2,9
37 25.3.2019 23:30 3 0 92,5 3,1
38 25.3.2019 23:00 3 0 91,9 3,3
39 25.3.2019 22:30 3 0 88,5 3,6
40 25.3.2019 22:00 3 0 92,4 3,6
41 25.3.2019 21:30 3 0 94,3 3,5
42 25.3.2019 21:00 3 0 96,3 3,6
43 25.3.2019 20:30 3 0,8 92,6 3,9
44 25.3.2019 20:00 3 1 81 4,9
45 25.3.2019 19:30 3 0,2 67,5 6,2
46 25.3.2019 19:00 3 0 78,4 6
47 25.3.2019 18:30 3 0 88,5 5,7
48 25.3.2019 18:00 3 0 78,7 6,3
© 2011 Ministrstvo za kmetijstvo, gozdarstvo in prehrano. Vse pravice pridržane.